| time (UTC) | temp F | wind direction | speed MPH | gust MPH | rain 1hr in | rain 24hr in | rain mn in | humidity % | barometer mb |
| 20260906143729 | 88 | 176 | 3.0 | 6.0 | 0.00 | 0.00 | 0.00 | 51 | 1015.7 |
| 20260906143303 | 87 | 129 | 2.0 | 6.0 | 0.00 | 0.00 | 0.00 | 52 | 1015.7 |
| 20260906142410 | 87 | 155 | 2.0 | 5.0 | 0.00 | 0.00 | 0.00 | 52 | 1015.7 |
| 20260906141731 | 86 | 162 | 2.0 | 5.0 | 0.00 | 0.00 | 0.00 | 53 | 1015.7 |
| 20260906141046 | 85 | 88 | 3.0 | 5.0 | 0.00 | 0.00 | 0.00 | 55 | 1015.7 |
| 20260906140157 | 85 | 144 | 2.0 | 6.0 | 0.00 | 0.00 | 0.00 | 54 | 1015.7 |
| 20260906135517 | 85 | 194 | 3.0 | 5.0 | 0.00 | 0.00 | 0.00 | 54 | 1015.7 |
| 20260906135048 | 85 | 174 | 3.0 | 5.0 | 0.00 | 0.00 | 0.00 | 56 | 1015.7 |
| 20260906134157 | 84 | 232 | 2.0 | 2.0 | 0.00 | 0.00 | 0.00 | 57 | 1015.4 |
| 20260906133943 | 84 | 167 | 1.0 | 2.0 | 0.00 | 0.00 | 0.00 | 59 | 1015.4 |
| 20260906132837 | 82 | 338 | 0.0 | 2.0 | 0.00 | 0.00 | 0.00 | 63 | 1015.4 |
| 20260906132411 | 80 | 93 | 1.0 | 2.0 | 0.00 | 0.00 | 0.00 | 66 | 1015.4 |
| 20260906131517 | 79 | 266 | 1.0 | 2.0 | 0.00 | 0.00 | 0.00 | 70 | 1015.4 |
| 20260906130837 | 78 | 302 | 1.0 | 3.0 | 0.00 | 0.00 | 0.00 | 71 | 1015.4 |
| 20260906130157 | 76 | 71 | 1.0 | 3.0 | 0.00 | 0.00 | 0.00 | 74 | 1015.1 |
| 20260906125517 | 75 | 54 | 2.0 | 4.0 | 0.00 | 0.00 | 0.00 | 76 | 1015.1 |
| 20260906125305 | 74 | 51 | 2.0 | 3.0 | 0.00 | 0.00 | 0.00 | 77 | 1015.1 |
| 20260906124157 | 74 | 64 | 2.0 | 3.0 | 0.00 | 0.00 | 0.00 | 78 | 1015.1 |
| 20260906123730 | 73 | 70 | 2.0 | 3.0 | 0.00 | 0.00 | 0.00 | 78 | 1015.1 |
| 20260906123051 | 72 | 50 | 2.0 | 3.0 | 0.00 | 0.00 | 0.00 | 80 | 1015.1 |
| 20260906122407 | 72 | 57 | 1.0 | 2.0 | 0.00 | 0.00 | 0.00 | 80 | 1014.7 |
| 20260906121727 | 72 | 59 | 2.0 | 2.0 | 0.00 | 0.00 | 0.00 | 81 | 1014.7 |
| 20260906120837 | 72 | 54 | 1.0 | 2.0 | 0.00 | 0.00 | 0.00 | 81 | 1014.7 |
| 20260906120157 | 72 | 313 | 1.0 | 3.0 | 0.00 | 0.00 | 0.00 | 81 | 1014.7 |
| 20260906115517 | 72 | 284 | 1.0 | 2.0 | 0.00 | 0.00 | 0.00 | 82 | 1014.7 |
| 20260906114837 | 71 | 55 | 1.0 | 3.0 | 0.00 | 0.00 | 0.00 | 82 | 1014.7 |
| 20260906114410 | 72 | 67 | 1.0 | 3.0 | 0.00 | 0.00 | 0.00 | 81 | 1014.4 |
| 20260906113517 | 72 | 32 | 1.0 | 3.0 | 0.00 | 0.00 | 0.00 | 81 | 1014.4 |
| 20260906113300 | 72 | 51 | 1.0 | 2.0 | 0.00 | 0.00 | 0.00 | 80 | 1014.4 |
| 20260906112157 | 72 | 47 | 1.0 | 2.0 | 0.00 | 0.00 | 0.00 | 80 | 1014.4 |
| 20260906111517 | 73 | 48 | 1.0 | 3.0 | 0.00 | 0.00 | 0.00 | 79 | 1014.4 |
| 20260906110837 | 73 | 31 | 1.0 | 4.0 | 0.00 | 0.00 | 0.00 | 79 | 1014.4 |
| 20260906110409 | 73 | 66 | 2.0 | 3.0 | 0.00 | 0.00 | 0.00 | 79 | 1014.4 |
| 20260906105517 | 73 | 69 | 2.0 | 6.0 | 0.00 | 0.00 | 0.00 | 78 | 1014.4 |
| 20260906104837 | 74 | 61 | 3.0 | 7.0 | 0.00 | 0.00 | 0.00 | 76 | 1014.4 |
| 20260906104157 | 74 | 54 | 4.0 | 8.0 | 0.00 | 0.00 | 0.00 | 77 | 1014.0 |
| 20260906103517 | 72 | 29 | 4.0 | 7.0 | 0.00 | 0.00 | 0.00 | 82 | 1014.0 |
| 20260906102837 | 71 | 49 | 3.0 | 5.0 | 0.00 | 0.00 | 0.00 | 84 | 1014.0 |
| 20260906102157 | 71 | 60 | 3.0 | 4.0 | 0.00 | 0.00 | 0.00 | 83 | 1013.7 |
| 20260906101729 | 72 | 58 | 2.0 | 3.0 | 0.00 | 0.00 | 0.00 | 83 | 1013.7 |
| 20260906101049 | 72 | 37 | 2.0 | 4.0 | 0.00 | 0.00 | 0.00 | 83 | 1013.7 |
| 20260906100410 | 72 | 23 | 2.0 | 5.0 | 0.00 | 0.00 | 0.00 | 83 | 1013.7 |
| 20260906095517 | 72 | 48 | 3.0 | 5.0 | 0.00 | 0.00 | 0.00 | 83 | 1013.7 |
| 20260906094837 | 72 | 52 | 2.0 | 4.0 | 0.00 | 0.00 | 0.00 | 83 | 1013.7 |
| 20260906094157 | 72 | 49 | 3.0 | 4.0 | 0.00 | 0.00 | 0.00 | 82 | 1013.7 |
| 20260906093517 | 72 | 50 | 2.0 | 3.0 | 0.00 | 0.00 | 0.00 | 82 | 1013.7 |
| 20260906093048 | 72 | 53 | 2.0 | 3.0 | 0.00 | 0.00 | 0.00 | 82 | 1013.7 |
| 20260906092157 | 72 | 57 | 2.0 | 3.0 | 0.00 | 0.00 | 0.00 | 81 | 1013.7 |
| 20260906091517 | 73 | 56 | 1.0 | 3.0 | 0.00 | 0.00 | 0.00 | 81 | 1013.7 |
| 20260906091050 | 72 | 40 | 1.0 | 3.0 | 0.00 | 0.00 | 0.00 | 81 | 1013.7 |
| 20260906090157 | 72 | 21 | 2.0 | 5.0 | 0.00 | 0.00 | 0.00 | 81 | 1013.7 |
| 20260906085517 | 72 | 52 | 4.0 | 5.0 | 0.00 | 0.00 | 0.00 | 82 | 1013.7 |
| 20260906085047 | 72 | 42 | 2.0 | 5.0 | 0.00 | 0.00 | 0.00 | 82 | 1013.7 |
| 20260906084157 | 72 | 52 | 4.0 | 5.0 | 0.00 | 0.00 | 0.00 | 82 | 1013.3 |
| 20260906083728 | 73 | 51 | 3.0 | 4.0 | 0.00 | 0.00 | 0.00 | 81 | 1013.3 |
| 20260906083049 | 73 | 47 | 3.0 | 4.0 | 0.00 | 0.00 | 0.00 | 81 | 1013.7 |
| 20260906082409 | 73 | 46 | 2.0 | 4.0 | 0.00 | 0.00 | 0.00 | 80 | 1013.7 |
| 20260906081517 | 74 | 56 | 2.0 | 3.0 | 0.00 | 0.00 | 0.00 | 79 | 1013.3 |
| 20260906080837 | 74 | 3 | 1.0 | 2.0 | 0.00 | 0.00 | 0.00 | 78 | 1013.7 |
| 20260906080157 | 74 | 355 | 1.0 | 2.0 | 0.00 | 0.00 | 0.00 | 79 | 1013.7 |
| 20260906075517 | 74 | 78 | 1.0 | 3.0 | 0.00 | 0.00 | 0.00 | 79 | 1013.7 |
| 20260906074837 | 74 | 22 | 2.0 | 3.0 | 0.00 | 0.00 | 0.00 | 80 | 1013.7 |
| 20260906074157 | 73 | 52 | 2.0 | 4.0 | 0.00 | 0.00 | 0.00 | 80 | 1013.7 |
| 20260906073517 | 74 | 44 | 2.0 | 4.0 | 0.00 | 0.00 | 0.00 | 79 | 1013.7 |
| 20260906072837 | 74 | 61 | 2.0 | 3.0 | 0.00 | 0.00 | 0.00 | 79 | 1013.7 |
| 20260906072157 | 74 | 56 | 1.0 | 2.0 | 0.00 | 0.00 | 0.00 | 78 | 1014.0 |
| 20260906071517 | 74 | 69 | 2.0 | 2.0 | 0.00 | 0.00 | 0.00 | 78 | 1014.0 |
| 20260906070837 | 74 | 34 | 1.0 | 2.0 | 0.00 | 0.00 | 0.00 | 78 | 1014.0 |
| 20260906070620 | 74 | 58 | 1.0 | 3.0 | 0.00 | 0.00 | 0.00 | 78 | 1014.0 |
| 20260906065517 | 74 | 60 | 2.0 | 4.0 | 0.00 | 0.00 | 0.00 | 78 | 1014.0 |
| 20260906064837 | 74 | 53 | 2.0 | 3.0 | 0.00 | 0.00 | 0.00 | 77 | 1014.0 |
| 20260906064157 | 75 | 63 | 2.0 | 3.0 | 0.00 | 0.00 | 0.00 | 76 | 1014.0 |
| 20260906063517 | 75 | 38 | 2.0 | 3.0 | 0.00 | 0.00 | 0.00 | 76 | 1014.0 |
| 20260906063050 | 75 | 52 | 2.0 | 4.0 | 0.00 | 0.00 | 0.00 | 76 | 1014.0 |
| 20260906062411 | 74 | 41 | 2.0 | 4.0 | 0.00 | 0.00 | 0.00 | 77 | 1014.0 |
| 20260906061726 | 74 | 47 | 3.0 | 5.0 | 0.00 | 0.00 | 0.00 | 77 | 1014.0 |
| 20260906060837 | 75 | 44 | 3.0 | 4.0 | 0.00 | 0.00 | 0.00 | 76 | 1014.0 |
| 20260906060157 | 75 | 46 | 2.0 | 4.0 | 0.00 | 0.00 | 0.00 | 76 | 1014.0 |
| 20260906055517 | 75 | 56 | 1.0 | 2.0 | 0.00 | 0.00 | 0.00 | 75 | 1014.0 |
| 20260906054837 | 75 | 67 | 2.0 | 2.0 | 0.00 | 0.00 | 0.00 | 75 | 1014.0 |
| 20260906054157 | 76 | 73 | 1.0 | 3.0 | 0.00 | 0.00 | 0.00 | 74 | 1014.4 |
| 20260906053943 | 76 | 82 | 1.0 | 4.0 | 0.00 | 0.00 | 0.00 | 74 | 1014.0 |
| 20260906053051 | 76 | 314 | 2.0 | 4.0 | 0.00 | 0.00 | 0.00 | 73 | 1014.0 |
| 20260906052157 | 76 | 354 | 1.0 | 4.0 | 0.00 | 0.00 | 0.00 | 74 | 1014.0 |
| 20260906051727 | 76 | 57 | 2.0 | 4.0 | 0.00 | 0.00 | 0.00 | 75 | 1014.0 |
| 20260906051048 | 76 | 57 | 3.0 | 5.0 | 0.00 | 0.00 | 0.00 | 74 | 1014.0 |
| 20260906050157 | 76 | 54 | 3.0 | 5.0 | 0.00 | 0.00 | 0.00 | 74 | 1014.0 |
| 20260906045729 | 76 | 48 | 2.0 | 4.0 | 0.00 | 0.00 | 0.00 | 74 | 1013.7 |
| 20260906044837 | 76 | 55 | 2.0 | 4.0 | 0.00 | 0.00 | 0.00 | 74 | 1013.7 |
| 20260906044410 | 76 | 47 | 3.0 | 4.0 | 0.00 | 0.00 | 0.00 | 73 | 1013.7 |
| 20260906043944 | 77 | 47 | 1.0 | 3.0 | 0.00 | 0.00 | 0.00 | 73 | 1013.7 |
| 20260906042837 | 77 | 56 | 2.0 | 4.0 | 0.00 | 0.00 | 0.00 | 72 | 1013.7 |
| 20260906042157 | 77 | 59 | 2.0 | 5.0 | 0.00 | 0.00 | 0.00 | 72 | 1013.7 |
| 20260906041517 | 77 | 34 | 3.0 | 5.0 | 0.00 | 0.00 | 0.00 | 70 | 1013.7 |
| 20260906040837 | 77 | 50 | 2.0 | 4.0 | 0.00 | 0.00 | 0.00 | 72 | 1014.0 |
| 20260906040409 | 78 | 61 | 2.0 | 5.0 | 0.00 | 0.00 | 0.00 | 71 | 1013.7 |
| 20260906035517 | 78 | 52 | 3.0 | 5.0 | 0.00 | 0.00 | 0.00 | 71 | 1013.7 |
| 20260906035050 | 78 | 50 | 2.0 | 5.0 | 0.00 | 0.00 | 0.00 | 70 | 1014.0 |
| 20260906034411 | 78 | 50 | 4.0 | 5.0 | 0.00 | 0.00 | 0.00 | 69 | 1013.7 |
| 20260906033517 | 79 | 47 | 2.0 | 3.0 | 0.00 | 0.00 | 0.00 | 69 | 1014.0 |
| 20260906032837 | 79 | 61 | 2.0 | 3.0 | 0.00 | 0.00 | 0.00 | 67 | 1014.0 |
| 20260906032157 | 80 | 35 | 1.0 | 3.0 | 0.00 | 0.00 | 0.00 | 65 | 1014.0 |
| 20260906031517 | 80 | 304 | 1.0 | 3.0 | 0.00 | 0.00 | 0.00 | 65 | 1013.7 |
| 20260906031049 | 80 | 50 | 2.0 | 4.0 | 0.00 | 0.00 | 0.00 | 66 | 1013.7 |
| 20260906030157 | 80 | 55 | 3.0 | 4.0 | 0.00 | 0.00 | 0.00 | 65 | 1014.0 |
| 20260906025517 | 81 | 66 | 2.0 | 3.0 | 0.00 | 0.00 | 0.00 | 64 | 1014.0 |
| 20260906024837 | 81 | 47 | 2.0 | 4.0 | 0.00 | 0.00 | 0.00 | 65 | 1013.7 |
| 20260906024407 | 81 | 60 | 2.0 | 4.0 | 0.00 | 0.00 | 0.00 | 62 | 1013.7 |
| 20260906023940 | 81 | 43 | 1.0 | 3.0 | 0.00 | 0.00 | 0.00 | 62 | 1013.7 |
| 20260906022837 | 82 | 59 | 3.0 | 3.0 | 0.00 | 0.00 | 0.00 | 61 | 1013.3 |
| 20260906022157 | 82 | 40 | 2.0 | 4.0 | 0.00 | 0.00 | 0.00 | 60 | 1013.3 |
| 20260906021729 | 82 | 67 | 2.0 | 6.0 | 0.00 | 0.00 | 0.00 | 60 | 1013.3 |
| 20260906020837 | 82 | 60 | 2.0 | 4.0 | 0.00 | 0.00 | 0.00 | 59 | 1013.3 |
| 20260906020157 | 83 | 56 | 3.0 | 4.0 | 0.00 | 0.00 | 0.00 | 58 | 1013.3 |
| 20260906015517 | 84 | 51 | 3.0 | 5.0 | 0.00 | 0.00 | 0.00 | 57 | 1013.0 |
| 20260906014837 | 85 | 58 | 4.0 | 6.0 | 0.00 | 0.00 | 0.00 | 53 | 1013.0 |
| 20260906014157 | 85 | 49 | 4.0 | 6.0 | 0.00 | 0.00 | 0.00 | 52 | 1013.0 |
| 20260906013517 | 87 | 66 | 2.0 | 4.0 | 0.00 | 0.00 | 0.00 | 50 | 1013.0 |
| 20260906012837 | 88 | 140 | 2.0 | 7.0 | 0.00 | 0.00 | 0.00 | 45 | 1013.0 |
| 20260906012157 | 87 | 160 | 3.0 | 5.0 | 0.00 | 0.00 | 0.00 | 49 | 1013.0 |
| 20260906011517 | 88 | 53 | 4.0 | 6.0 | 0.00 | 0.00 | 0.00 | 48 | 1012.6 |
| 20260906010837 | 88 | 53 | 4.0 | 6.0 | 0.00 | 0.00 | 0.00 | 46 | 1012.6 |
| 20260906010157 | 88 | 35 | 3.0 | 4.0 | 0.00 | 0.00 | 0.00 | 47 | 1012.6 |
| 20260906005517 | 89 | 61 | 2.0 | 4.0 | 0.00 | 0.00 | 0.00 | 47 | 1012.6 |
| 20260906005047 | 89 | 53 | 2.0 | 4.0 | 0.00 | 0.00 | 0.00 | 46 | 1012.6 |
| 20260906004157 | 90 | 42 | 2.0 | 4.0 | 0.00 | 0.00 | 0.00 | 43 | 1012.6 |
| 20260906003729 | 90 | 52 | 3.0 | 4.0 | 0.00 | 0.00 | 0.00 | 42 | 1012.6 |
| 20260906002837 | 92 | 68 | 3.0 | 5.0 | 0.00 | 0.00 | 0.00 | 42 | 1012.6 |
| 20260906002410 | 92 | 36 | 3.0 | 5.0 | 0.00 | 0.00 | 0.00 | 39 | 1012.6 |
| 20260906001517 | 93 | 63 | 3.0 | 5.0 | 0.00 | 0.00 | 0.00 | 38 | 1012.6 |
| 20260906000837 | 93 | 62 | 2.0 | 6.0 | 0.00 | 0.00 | 0.00 | 37 | 1012.6 |
| 20260906000157 | 94 | 65 | 4.0 | 6.0 | 0.00 | 0.00 | 0.00 | 36 | 1012.6 |
| 20260905235517 | 95 | 90 | 3.0 | 6.0 | 0.00 | 0.00 | 0.00 | 35 | 1012.6 |
| 20260905234837 | 96 | 71 | 4.0 | 6.0 | 0.00 | 0.00 | 0.00 | 33 | 1012.6 |
| 20260905234409 | 96 | 98 | 3.0 | 7.0 | 0.00 | 0.00 | 0.00 | 33 | 1012.6 |
| 20260905233517 | 96 | 94 | 4.0 | 7.0 | 0.00 | 0.00 | 0.00 | 32 | 1012.6 |
| 20260905232837 | 96 | 87 | 4.0 | 7.0 | 0.00 | 0.00 | 0.00 | 32 | 1012.6 |
| 20260905232410 | 97 | 72 | 4.0 | 8.0 | 0.00 | 0.00 | 0.00 | 30 | 1012.6 |
| 20260905231517 | 98 | 71 | 5.0 | 10.0 | 0.00 | 0.00 | 0.00 | 30 | 1012.6 |
| 20260905231047 | 99 | 93 | 3.0 | 9.0 | 0.00 | 0.00 | 0.00 | 29 | 1012.6 |
| 20260905230157 | 99 | 107 | 5.0 | 8.0 | 0.00 | 0.00 | 0.00 | 28 | 1012.3 |
| 20260905225517 | 101 | 87 | 3.0 | 4.0 | 0.00 | 0.00 | 0.00 | 27 | 1012.3 |
| 20260905225049 | 102 | 218 | 2.0 | 7.0 | 0.00 | 0.00 | 0.00 | 24 | 1012.3 |
| 20260905224157 | 101 | 224 | 3.0 | 7.0 | 0.00 | 0.00 | 0.00 | 25 | 1012.3 |
| 20260905223517 | 100 | 128 | 3.0 | 7.0 | 0.00 | 0.00 | 0.00 | 25 | 1012.3 |
| 20260905222837 | 100 | 149 | 3.0 | 8.0 | 0.00 | 0.00 | 0.00 | 25 | 1012.3 |
| 20260905222157 | 102 | 168 | 2.0 | 6.0 | 0.00 | 0.00 | 0.00 | 25 | 1012.3 |
| 20260905221517 | 101 | 185 | 3.0 | 8.0 | 0.00 | 0.00 | 0.00 | 25 | 1012.3 |
| 20260905220837 | 101 | 131 | 2.0 | 10.0 | 0.00 | 0.00 | 0.00 | 25 | 1012.3 |
| 20260905220157 | 101 | 177 | 4.0 | 10.0 | 0.00 | 0.00 | 0.00 | 26 | 1012.3 |
| 20260905215517 | 103 | 219 | 3.0 | 7.0 | 0.00 | 0.00 | 0.00 | 24 | 1012.3 |
| 20260905215049 | 102 | 234 | 4.0 | 7.0 | 0.00 | 0.00 | 0.00 | 24 | 1012.6 |
| 20260905214410 | 101 | 230 | 2.0 | 10.0 | 0.00 | 0.00 | 0.00 | 24 | 1012.6 |
| 20260905213517 | 102 | 222 | 4.0 | 9.0 | 0.00 | 0.00 | 0.00 | 24 | 1012.6 |
| 20260905213046 | 101 | 169 | 6.0 | 10.0 | 0.00 | 0.00 | 0.00 | 24 | 1012.6 |
| 20260905212407 | 101 | 201 | 4.0 | 10.0 | 0.00 | 0.00 | 0.00 | 25 | 1012.6 |
| 20260905211941 | 102 | 243 | 4.0 | 9.0 | 0.00 | 0.00 | 0.00 | 24 | 1012.6 |
| 20260905210837 | 102 | 316 | 1.0 | 7.0 | 0.00 | 0.00 | 0.00 | 23 | 1012.6 |
| 20260905210409 | 102 | 214 | 5.0 | 8.0 | 0.00 | 0.00 | 0.00 | 24 | 1012.6 |
| 20260905205517 | 102 | 221 | 2.0 | 7.0 | 0.00 | 0.00 | 0.00 | 24 | 1012.6 |
| 20260905205050 | 102 | 273 | 3.0 | 7.0 | 0.00 | 0.00 | 0.00 | 23 | 1013.0 |
| 20260905204157 | 103 | 325 | 2.0 | 6.0 | 0.00 | 0.00 | 0.00 | 23 | 1013.0 |
| 20260905203726 | 102 | 220 | 3.0 | 8.0 | 0.00 | 0.00 | 0.00 | 23 | 1013.3 |
| 20260905202837 | 101 | 161 | 3.0 | 8.0 | 0.00 | 0.00 | 0.00 | 24 | 1013.3 |
| 20260905202157 | 101 | 205 | 5.0 | 8.0 | 0.00 | 0.00 | 0.00 | 24 | 1013.3 |
| 20260905201728 | 101 | 139 | 3.0 | 7.0 | 0.00 | 0.00 | 0.00 | 24 | 1013.3 |
| 20260905200837 | 101 | 156 | 2.0 | 9.0 | 0.00 | 0.00 | 0.00 | 24 | 1013.7 |
| 20260905200157 | 101 | 126 | 4.0 | 10.0 | 0.00 | 0.00 | 0.00 | 24 | 1013.7 |
| 20260905195517 | 102 | 105 | 3.0 | 8.0 | 0.00 | 0.00 | 0.00 | 23 | 1013.7 |
| 20260905194837 | 102 | 195 | 5.0 | 8.0 | 0.00 | 0.00 | 0.00 | 23 | 1013.7 |
| 20260905194157 | 100 | 114 | 4.0 | 9.0 | 0.00 | 0.00 | 0.00 | 24 | 1014.0 |
| 20260905193727 | 100 | 204 | 5.0 | 9.0 | 0.00 | 0.00 | 0.00 | 24 | 1014.0 |
| 20260905193048 | 100 | 294 | 4.0 | 9.0 | 0.00 | 0.00 | 0.00 | 25 | 1014.0 |
| 20260905192157 | 101 | 290 | 4.0 | 9.0 | 0.00 | 0.00 | 0.00 | 24 | 1014.0 |
| 20260905191729 | 101 | 336 | 2.0 | 9.0 | 0.00 | 0.00 | 0.00 | 24 | 1014.4 |
| 20260905191303 | 101 | 246 | 3.0 | 6.0 | 0.00 | 0.00 | 0.00 | 24 | 1014.4 |
| 20260905190157 | 102 | 279 | 3.0 | 8.0 | 0.00 | 0.00 | 0.00 | 24 | 1014.4 |
| 20260905185517 | 101 | 243 | 3.0 | 8.0 | 0.00 | 0.00 | 0.00 | 25 | 1014.4 |
| 20260905184837 | 101 | 242 | 2.0 | 7.0 | 0.00 | 0.00 | 0.00 | 26 | 1014.4 |
| 20260905184407 | 99 | 296 | 3.0 | 11.0 | 0.00 | 0.00 | 0.00 | 27 | 1014.7 |
| 20260905183728 | 100 | 312 | 7.0 | 11.0 | 0.00 | 0.00 | 0.00 | 26 | 1014.7 |
| 20260905182837 | 99 | 228 | 5.0 | 8.0 | 0.00 | 0.00 | 0.00 | 27 | 1014.7 |
| 20260905182157 | 99 | 251 | 4.0 | 8.0 | 0.00 | 0.00 | 0.00 | 27 | 1015.1 |
| 20260905181517 | 99 | 249 | 2.0 | 6.0 | 0.00 | 0.00 | 0.00 | 28 | 1015.1 |
| 20260905180837 | 99 | 219 | 4.0 | 8.0 | 0.00 | 0.00 | 0.00 | 28 | 1015.1 |
| 20260905180624 | 99 | 231 | 5.0 | 8.0 | 0.00 | 0.00 | 0.00 | 29 | 1015.1 |
| 20260905175517 | 98 | 230 | 4.0 | 10.0 | 0.00 | 0.00 | 0.00 | 29 | 1015.1 |
| 20260905175047 | 97 | 300 | 7.0 | 10.0 | 0.00 | 0.00 | 0.00 | 31 | 1015.4 |
| 20260905174157 | 97 | 276 | 5.0 | 11.0 | 0.00 | 0.00 | 0.00 | 30 | 1015.4 |
| 20260905173517 | 97 | 293 | 6.0 | 10.0 | 0.00 | 0.00 | 0.00 | 32 | 1015.4 |
| 20260905173049 | 99 | 310 | 4.0 | 8.0 | 0.00 | 0.00 | 0.00 | 31 | 1015.4 |
| 20260905172157 | 97 | 240 | 2.0 | 6.0 | 0.00 | 0.00 | 0.00 | 31 | 1015.7 |
| 20260905171517 | 98 | 218 | 3.0 | 10.0 | 0.00 | 0.00 | 0.00 | 31 | 1015.7 |
| 20260905170837 | 97 | 280 | 5.0 | 10.0 | 0.00 | 0.00 | 0.00 | 32 | 1015.7 |
| 20260905170157 | 97 | 288 | 2.0 | 5.0 | 0.00 | 0.00 | 0.00 | 31 | 1015.7 |
| 20260905165517 | 96 | 63 | 2.0 | 10.0 | 0.00 | 0.00 | 0.00 | 32 | 1016.1 |
| 20260905165301 | 96 | 352 | 3.0 | 6.0 | 0.00 | 0.00 | 0.00 | 34 | 1016.1 |
| 20260905164408 | 95 | 73 | 2.0 | 8.0 | 0.00 | 0.00 | 0.00 | 34 | 1016.1 |
| 20260905163942 | 96 | 286 | 5.0 | 8.0 | 0.00 | 0.00 | 0.00 | 35 | 1016.1 |
| 20260905163050 | 96 | 267 | 4.0 | 10.0 | 0.00 | 0.00 | 0.00 | 34 | 1016.1 |
| 20260905162405 | 94 | 303 | 6.0 | 10.0 | 0.00 | 0.00 | 0.00 | 36 | 1016.1 |
| 20260905161939 | 95 | 332 | 4.0 | 9.0 | 0.00 | 0.00 | 0.00 | 36 | 1016.1 |
| 20260905160836 | 95 | 272 | 3.0 | 8.0 | 0.00 | 0.00 | 0.00 | 37 | 1016.1 |
| 20260905160156 | 94 | 302 | 2.0 | 8.0 | 0.00 | 0.00 | 0.00 | 37 | 1016.1 |
| 20260905155516 | 94 | 357 | 4.0 | 9.0 | 0.00 | 0.00 | 0.00 | 37 | 1016.1 |
| 20260905154836 | 93 | 351 | 6.0 | 10.0 | 0.00 | 0.00 | 0.00 | 39 | 1016.1 |
| 20260905154156 | 93 | 8 | 5.0 | 10.0 | 0.00 | 0.00 | 0.00 | 39 | 1016.1 |
| 20260905153516 | 92 | 320 | 5.0 | 11.0 | 0.00 | 0.00 | 0.00 | 40 | 1016.4 |
| 20260905153045 | 92 | 299 | 7.0 | 11.0 | 0.00 | 0.00 | 0.00 | 40 | 1016.1 |
| 20260905152406 | 92 | 318 | 6.0 | 11.0 | 0.00 | 0.00 | 0.00 | 40 | 1016.1 |
| 20260905151516 | 92 | 318 | 3.0 | 9.0 | 0.00 | 0.00 | 0.00 | 42 | 1016.4 |
| 20260905150836 | 91 | 298 | 5.0 | 12.0 | 0.00 | 0.00 | 0.00 | 42 | 1016.1 |
| 20260905150156 | 91 | 309 | 6.0 | 12.0 | 0.00 | 0.00 | 0.00 | 43 | 1016.1 |
| 20260905145517 | 90 | 278 | 4.0 | 8.0 | 0.00 | 0.00 | 0.00 | 44 | 1016.1 |
| 20260905145049 | 90 | 286 | 2.0 | 9.0 | 0.00 | 0.00 | 0.00 | 45 | 1016.1 |
| 20260905144157 | 90 | 288 | 5.0 | 9.0 | 0.00 | 0.00 | 0.00 | 46 | 1016.1 |